Temperature
1 1 1 1 1 1 1 1 1 1 1 1 -1 -2 -2 -2 -2 -3 -3 -2 -2 -2 -1 -1 -1 -1 -1 -1 -1 -1 -1 -1 -1 -2 -2 -2 -2 -2 -2 -2 -2 -2 -2 -3
-0 1 1 0 0 0 0 0 0 0 -0 -1 -2 -2 -3 -3 -3 -4 -3 -3 -3 -3 -2 -2 -2 -1 -1 -1 -1 -2 -2 -2 -2 -2 -2 -2 -3 -3 -3 -3 -3 -3 -3 -3
-1 -0 -0 -1 -1 -1 -1 -1 -1 -1 -1 -2 -3 -3 -4 -4 -4 -4 -4 -4 -3 -3 -3 -3 -3 -2 -2 -2 -2 -2 -2 -3 -3 -3 -3 -3 -3 -3 -4 -4 -4 -4 -4 -4
-2 -1 -1 -1 -2 -2 -2 -2 -3 -3 -3 -3 -4 -4 -4 -4 -4 -4 -4 -4 -4 -4 -3 -3 -3 -3 -3 -3 -3 -3 -3 -3 -3 -4 -4 -4 -4 -4 -4 -4 -4 -4 -4 -4
-2 -2 -2 -2 -3 -3 -3 -3 -4 -4 -4 -5 -5 -4 -5 -5 -4 -4 -4 -4 -4 -4 -4 -4 -4 -4 -4 -4 -4 -4 -4 -4 -4 -4 -4 -4 -5 -5 -5 -5 -5 -5 -5 -5
-3 -2 -2 -2 -4 -4 -3 -3 -5 -5 -5 -6 -5 -5 -6 -5 -5 -5 -5 -5 -5 -5 -5 -5 -5 -5 -4 -4 -5 -5 -5 -5 -5 -5 -5 -5 -5 -5 -6 -6 -6 -6 -6 -6
-4 -3 -4 -5 -5 -4 -3 -4 -6 -6 -6 -6 -6 -6 -6 -6 -6 -6 -6 -6 -5 -5 -5 -5 -5 -5 -5 -5 -5 -5 -5 -5 -5 -6 -6 -6 -6 -6 -6 -6 -6 -7 -7 -7
-5 -4 -4 -6 -6 -5 -6 -6 -6 -6 -6 -7 -7 -7 -7 -7 -7 -7 -7 -6 -6 -6 -6 -6 -6 -6 -6 -6 -6 -6 -6 -6 -6 -6 -6 -7 -7 -7 -7 -7 -7 -7 -7 -7
-6 -5 -6 -6 -7 -6 -7 -7 -7 -7 -7 -7 -8 -8 -8 -8 -8 -8 -8 -7 -7 -7 -7 -7 -7 -7 -7 -7 -7 -7 -7 -7 -7 -7 -7 -7 -7 -7 -7 -8 -8 -8 -8 -8
-7 -7 -7 -7 -7 -7 -7 -8 -8 -8 -8 -8 -8 -9 -9 -9 -9 -9 -8 -8 -8 -8 -8 -8 -8 -8 -8 -8 -8 -8 -7 -8 -8 -8 -8 -8 -8 -8 -8 -8 -8 -8 -9 -9
-8 -8 -8 -8 -8 -8 -8 -8 -9 -9 -9 -9 -9 -9 -9 -9 -9 -9 -9 -9 -9 -9 -9 -8 -8 -8 -8 -8 -8 -8 -8 -8 -8 -8 -9 -9 -9 -9 -9 -9 -9 -9 -9 -9
-8 -8 -9 -9 -8 -8 -9 -9 -9 -9 -9 -9 -9 -10 -10 -10 -10 -10 -10 -10 -9 -9 -9 -9 -9 -9 -9 -9 -9 -9 -9 -9 -9 -9 -9 -10 -10 -10 -10 -10 -10 -10 -10 -10
-8 -8 -8 -9 -9 -9 -9 -10 -10 -10 -10 -10 -10 -10 -10 -10 -10 -10 -10 -10 -10 -10 -10 -10 -10 -10 -10 -10 -10 -9 -10 -10 -10 -10 -10 -10 -10 -10 -10 -10 -10 -10 -10 -10
-9 -9 -9 -10 -10 -10 -10 -10 -10 -10 -10 -10 -10 -11 -11 -11 -11 -11 -11 -11 -11 -11 -11 -10 -10 -10 -10 -10 -10 -10 -10 -10 -11 -11 -11 -11 -11 -11 -11 -11 -11 -11 -11 -11
-9 -9 -10 -10 -10 -10 -10 -10 -11 -11 -11 -11 -11 -11 -11 -11 -11 -11 -11 -11 -11 -11 -11 -11 -11 -11 -11 -11 -11 -11 -11 -11 -11 -11 -11 -11 -11 -11 -11 -11 -12 -12 -12 -12
-10 -10 -10 -11 -11 -11 -11 -11 -11 -11 -11 -11 -12 -12 -12 -12 -12 -12 -12 -12 -12 -12 -12 -12 -11 -12 -12 -12 -11 -11 -11 -12 -12 -12 -12 -12 -12 -12 -12 -12 -12 -12 -12 -12
-11 -11 -11 -11 -11 -11 -11 -11 -11 -12 -12 -12 -12 -12 -12 -12 -12 -12 -12 -12 -12 -12 -12 -12 -12 -12 -12 -12 -12 -12 -12 -12 -12 -12 -12 -12 -12 -12 -12 -13 -13 -13 -13 -13
-10 -11 -11 -11 -11 -11 -12 -12 -12 -12 -12 -12 -12 -12 -12 -12 -12 -12 -13 -12 -12 -12 -12 -12 -13 -13 -13 -13 -13 -13 -13 -13 -13 -13 -13 -13 -13 -13 -13 -13 -13 -13 -13 -13
-11 -11 -11 -11 -11 -12 -12 -12 -12 -12 -12 -13 -13 -13 -13 -13 -13 -13 -13 -13 -13 -12 -13 -13 -13 -13 -13 -13 -13 -13 -13 -13 -13 -13 -13 -13 -13 -13 -13 -13 -13 -13 -13 -13
-11 -11 -11 -12 -12 -12 -12 -12 -12 -13 -13 -13 -13 -13 -13 -13 -13 -13 -13 -13 -13 -13 -13 -13 -13 -13 -13 -13 -13 -13 -13 -13 -14 -14 -14 -14 -14 -14 -14 -14 -14 -14 -14 -14
-11 -12 -12 -12 -12 -12 -12 -13 -13 -13 -13 -13 -13 -13 -13 -13 -14 -14 -14 -13 -13 -14 -14 -14 -14 -14 -14 -14 -14 -14 -14 -14 -14 -14 -14 -14 -14 -14 -14 -14 -14 -14 -14 -14
-12 -12 -12 -12 -12 -12 -13 -13 -13 -13 -13 -13 -13 -14 -14 -14 -14 -14 -14 -14 -14 -14 -14 -14 -14 -14 -14 -14 -14 -14 -14 -14 -14 -14 -14 -14 -14 -14 -14 -14 -14 -14 -14 -14
-12 -12 -12 -13 -13 -13 -13 -13 -13 -13 -14 -14 -14 -14 -14 -14 -14 -14 -14 -14 -14 -14 -14 -14 -14 -15 -15 -15 -14 -14 -14 -14 -14 -14 -14 -15 -15 -15 -14 -14 -14 -14 -14 -14
-12 -13 -13 -13 -13 -13 -13 -13 -14 -14 -14 -14 -14 -14 -14 -14 -14 -14 -15 -15 -15 -15 -15 -15 -15 -15 -15 -15 -15 -15 -15 -15 -15 -15 -15 -15 -15 -15 -15 -15 -15 -15 -15 -15
-13 -13 -13 -13 -13 -14 -14 -14 -14 -14 -14 -14 -15 -15 -15 -15 -15 -15 -15 -15 -15 -15 -15 -15 -15 -15 -15 -15 -15 -15 -15 -15 -15 -15 -15 -15 -15 -15 -15 -15 -15 -15 -15 -15
-13 -13 -13 -14 -14 -14 -14 -14 -14 -15 -15 -15 -15 -15 -15 -15 -15 -15 -15 -15 -15 -15 -15 -15 -15 -15 -15 -15 -15 -15 -15 -15 -15 -15 -15 -15 -15 -15 -15 -15 -15 -15 -15 -15
-14 -14 -14 -14 -14 -15 -15 -15 -15 -15 -15 -15 -15 -15 -15 -15 -15 -16 -16 -16 -16 -16 -16 -16 -16 -16 -16 -16 -16 -16 -16 -16 -16 -16 -16 -16 -16 -15 -15 -15 -15 -15 -15 -15
Wind_Speed
7 7 4 6 7 5 6 7 7 6 6 5 3 2 1 1 2 3 3 3 3 2 2 2 1 1 2 3 4 4 4 4 4 4 3 3 3 3 4 4 4 4 3 3
5 5 3 5 7 7 7 6 7 6 6 3 2 2 1 1 2 2 2 3 3 3 3 2 2 1 1 2 3 4 4 4 3 4 4 3 3 3 3 3 3 4 4 3
4 4 2 6 5 5 3 2 3 6 6 1 2 2 1 1 0 1 2 3 3 3 2 2 2 0 1 2 3 4 4 4 4 4 4 3 3 3 3 3 3 3 3 3
2 1 5 5 1 0 2 1 1 1 2 2 1 2 2 2 1 2 3 3 3 3 3 3 2 2 1 2 3 3 3 3 3 3 3 3 3 3 3 2 3 2 3 3
2 2 5 4 3 2 1 3 2 1 2 3 2 3 3 4 4 3 3 3 2 2 2 2 2 2 2 2 2 3 3 3 3 3 3 3 3 3 2 2 2 2 2 3
2 3 5 3 4 4 0 3 3 2 1 2 2 1 2 4 5 4 4 3 3 3 3 3 2 2 2 2 2 1 2 2 2 3 4 4 3 3 2 2 2 2 2 2
4 4 5 3 5 2 2 4 4 3 2 1 1 2 2 3 4 4 4 4 4 3 3 3 2 2 2 2 1 0 1 1 2 2 3 3 3 3 3 2 2 2 1 1
2 3 5 4 3 1 2 3 3 3 3 1 1 2 2 3 4 4 5 5 4 4 4 4 3 2 2 1 1 1 1 1 1 1 2 2 3 3 3 3 2 2 1 1
3 3 2 1 0 2 1 2 3 3 3 1 1 2 2 3 3 4 4 4 4 3 4 4 4 3 2 2 2 2 2 1 1 1 1 2 3 3 2 3 2 2 2 2
1 2 2 2 2 4 3 3 3 3 2 1 1 1 2 2 3 3 4 4 4 4 4 4 4 4 2 1 1 1 1 1 1 2 1 1 1 2 2 2 2 2 2 2
2 3 3 2 2 3 3 4 4 4 3 2 1 1 1 2 2 3 4 4 4 4 4 4 4 4 3 2 1 1 1 1 1 1 1 1 1 1 2 2 3 3 3 3
4 3 3 3 2 1 2 3 3 3 3 3 2 1 1 1 2 2 3 4 4 4 4 4 4 4 4 2 1 1 1 1 1 1 1 1 1 1 2 1 3 3 3 3
3 1 1 2 1 1 1 2 3 2 2 2 2 1 1 1 2 2 3 3 3 3 3 4 4 4 4 3 2 0 1 0 0 0 1 1 1 1 0 2 2 2 3 3
1 1 1 1 2 2 1 2 2 2 2 1 1 2 1 1 1 2 2 3 3 3 3 3 3 4 4 2 1 1 0 0 0 1 1 1 1 1 1 1 1 2 3 4
2 1 1 1 1 1 2 2 2 2 2 2 2 2 1 1 2 2 3 3 3 3 3 3 3 4 4 2 2 1 1 0 0 0 1 1 1 1 1 1 1 1 1 3
2 2 1 1 1 1 2 2 1 1 2 2 2 2 2 1 2 2 3 3 2 3 4 4 3 4 3 2 2 1 1 1 1 0 0 1 1 1 1 1 1 1 2 2
0 1 1 2 2 2 2 1 1 1 1 2 2 2 2 2 2 3 3 3 2 3 4 4 4 4 3 2 1 1 1 1 2 1 1 1 1 1 1 2 2 2 2 3
2 2 2 2 2 2 2 2 1 1 1 2 1 1 1 2 2 3 4 3 3 4 4 4 4 3 3 2 1 1 1 1 1 1 1 2 2 1 2 2 2 2 2 3
1 1 1 1 1 0 1 1 1 2 2 1 1 1 1 2 3 3 3 3 4 4 5 5 5 4 3 3 2 1 1 1 1 1 1 2 2 1 2 2 2 2 3 3
2 2 2 2 2 1 1 1 1 1 2 1 1 1 2 3 3 3 2 2 3 4 5 5 4 3 3 3 3 1 1 1 2 2 2 2 2 2 2 2 2 2 3 3
1 1 1 1 1 2 2 1 1 1 2 1 1 1 2 3 3 2 2 4 4 4 4 6 4 3 3 3 3 1 1 1 2 2 2 2 2 3 3 2 2 3 3 3
1 1 1 1 1 2 2 2 1 1 2 2 2 2 2 3 3 3 2 3 5 7 4 3 3 4 5 3 1 1 1 2 2 2 2 2 3 3 3 3 3 3 3 3
1 0 0 1 1 1 2 2 2 1 2 2 2 3 3 3 3 3 4 4 3 6 5 3 5 7 6 2 1 1 2 2 2 2 3 3 3 3 3 3 3 3 3 3
0 1 1 1 1 1 2 2 2 2 2 2 2 3 3 3 3 3 3 6 7 7 4 6 8 8 6 2 1 2 2 3 3 3 3 3 3 3 3 4 4 4 4 4
0 0 1 1 1 1 2 2 2 2 2 2 3 3 3 2 3 4 4 4 7 7 5 7 9 8 5 2 2 3 3 3 4 3 3 3 4 4 4 4 4 4 4 5
0 0 0 0 1 1 1 1 2 2 2 3 3 3 3 3 3 3 3 4 5 7 5 4 5 6 4 3 3 4 3 4 5 4 4 4 4 4 4 4 5 5 5 5
1 1 1 1 1 1 1 1 2 3 3 3 4 4 3 3 3 4 4 4 4 4 4 4 4 4 4 4 4 4 4 4 4 4 4 4 4 4 5 5 5 6 6 6
Wind_Direction
265 268 250 256 268 249 222 223 226 247 247 271 292 273 294 17 41 57 49 40 33 29 20 21 40 103 150 154 150 149 150 154 163 162 157 152 152 162 167 173 178 174 173 173
276 270 262 285 284 261 249 245 241 258 272 297 332 41 46 40 49 39 14 9 15 17 16 7 1 21 111 134 143 144 149 152 150 145 144 149 154 156 161 170 177 171 172 179
270 296 322 280 263 230 218 224 217 246 262 319 7 355 311 268 64 6 357 355 0 360 358 353 342 31 132 136 133 139 144 147 149 147 148 155 158 158 171 173 174 177 182 185
270 356 236 246 352 229 204 254 289 304 337 351 349 335 356 36 40 11 357 349 348 350 353 357 5 25 89 112 128 137 141 147 153 150 151 152 154 164 176 178 176 183 187 193
199 235 267 292 339 1 214 278 331 310 341 356 3 26 13 13 16 360 345 338 341 347 356 4 11 22 76 101 117 133 147 157 160 158 159 159 164 170 171 167 169 185 187 189
193 211 241 273 320 319 242 262 353 350 335 348 28 353 297 344 358 5 8 5 4 8 24 20 9 28 78 90 111 141 168 171 167 167 167 169 174 173 170 170 173 184 196 201
217 227 257 304 316 350 173 275 333 337 338 11 263 254 296 348 2 9 9 4 7 17 18 5 10 39 67 75 76 120 135 141 151 163 169 166 165 165 162 162 155 172 188 215
198 217 258 343 24 112 262 332 344 349 348 1 7 10 4 11 8 10 10 7 10 15 8 5 16 48 58 35 14 52 87 110 130 154 163 152 154 160 158 158 161 174 179 215
199 218 286 356 327 313 350 343 336 339 344 30 41 5 1 9 9 11 7 1 3 10 8 9 15 33 43 356 19 60 85 101 123 128 135 149 159 164 162 164 172 188 189 213
248 281 302 331 12 18 22 7 354 0 7 24 35 8 5 5 5 4 2 358 0 9 12 5 7 13 7 356 29 77 100 102 114 121 123 133 154 166 176 186 191 200 208 221
260 284 324 341 354 350 12 24 17 10 12 17 47 7 0 359 357 355 355 358 3 7 4 356 357 360 356 8 52 76 100 113 110 109 131 136 136 188 208 213 210 208 211 214
245 245 242 276 300 345 23 357 354 6 12 18 33 19 15 7 2 358 355 359 0 2 358 350 353 354 348 351 36 101 84 88 103 112 123 121 115 9 333 290 265 260 255 246
250 274 253 285 327 -0 359 336 348 5 11 7 23 37 43 19 8 5 358 357 351 344 344 346 351 350 343 348 3 65 172 189 183 144 153 168 182 181 303 332 326 304 285 276
334 67 15 313 309 335 356 352 7 17 18 32 41 35 36 32 12 357 346 340 337 340 339 342 349 341 332 338 353 4 37 265 257 204 201 203 213 219 219 223 282 313 313 305
8 6 277 314 27 15 6 9 21 20 22 26 35 30 19 9 345 334 333 338 345 349 344 344 345 332 330 336 350 350 344 305 249 226 225 226 228 230 228 229 248 274 306 316
336 20 45 49 16 347 352 356 0 343 351 359 5 355 349 345 331 330 337 344 349 341 335 335 328 321 325 333 337 342 318 312 338 326 268 250 241 235 241 247 257 262 274 285
132 285 297 303 298 301 304 308 301 304 327 335 328 339 357 359 351 342 338 337 331 320 321 319 314 316 322 326 321 320 316 297 318 321 287 267 254 243 242 244 250 262 268 274
231 239 241 248 255 275 303 320 326 329 320 315 346 10 2 344 325 322 326 334 337 333 327 318 312 311 314 317 313 310 310 309 300 283 284 276 267 254 248 249 254 265 276 282
2 18 14 2 337 291 295 318 330 335 340 352 3 334 320 315 312 317 330 344 340 329 320 313 324 333 326 315 318 289 281 287 291 289 283 279 295 281 260 253 254 259 266 272
22 25 28 25 26 25 350 343 353 353 345 357 13 358 341 329 327 326 327 326 309 293 298 314 322 321 313 300 305 278 276 273 273 279 279 270 271 273 268 263 260 262 268 271
1 8 19 24 11 1 355 353 8 349 344 1 357 317 315 323 328 327 324 318 318 313 311 323 327 314 304 295 302 294 277 275 273 269 267 266 268 271 271 271 271 272 271 272
324 345 348 5 15 355 351 359 6 1 1 357 346 336 336 332 330 324 306 293 306 324 331 321 313 308 313 316 311 271 263 263 266 268 264 264 265 267 270 270 270 273 272 270
300 300 330 336 329 337 356 3 359 356 344 336 334 330 322 316 320 315 311 315 314 323 330 319 315 318 325 338 328 283 269 262 262 262 263 263 263 263 265 268 269 270 270 271
356 14 4 14 57 47 0 339 340 336 322 319 319 317 313 313 314 303 293 314 326 325 326 323 326 324 329 346 319 295 282 273 268 264 264 266 265 262 262 263 266 268 268 269
53 47 60 57 30 329 313 328 340 337 334 328 325 324 316 303 295 307 312 316 323 326 324 326 328 329 336 327 311 296 286 274 266 260 256 259 259 260 261 262 263 266 268 268
46 355 318 299 297 310 320 330 331 327 327 326 325 322 317 313 310 311 314 317 317 325 326 319 320 323 320 310 300 294 288 292 296 288 269 263 260 261 262 262 263 263 264 264
31 32 15 354 343 335 330 325 318 315 317 310 309 317 322 322 321 321 319 319 318 317 313 312 313 310 307 304 301 296 291 287 284 281 278 273 270 269 269 267 267 268 267 266
Height
1461 1458 1458 1458 1457 1456 1456 1455 1456 1452 1452 1451 1452 1452 1452 1451 1450 1449 1449 1449 1449 1449 1449 1449 1449 1450 1451 1452 1453 1455 1457 1458 1460 1461 1463 1464 1465 1467 1468 1469 1470 1472 1473 1474
1463 1457 1457 1458 1456 1454 1454 1454 1453 1452 1452 1452 1452 1451 1451 1451 1450 1450 1449 1449 1448 1448 1448 1448 1448 1449 1449 1450 1452 1453 1455 1456 1457 1459 1460 1461 1462 1464 1464 1465 1467 1468 1469 1470
1464 1460 1458 1460 1455 1453 1454 1454 1454 1453 1452 1452 1451 1451 1451 1450 1450 1449 1449 1448 1448 1447 1447 1447 1447 1448 1448 1449 1450 1451 1452 1454 1455 1456 1457 1458 1460 1461 1461 1462 1463 1464 1465 1466
1467 1464 1465 1457 1454 1453 1453 1455 1454 1453 1452 1452 1451 1451 1450 1450 1449 1449 1448 1448 1447 1447 1447 1447 1446 1447 1447 1448 1448 1449 1450 1451 1453 1454 1455 1456 1457 1458 1459 1459 1460 1461 1462 1463
1468 1466 1461 1457 1456 1456 1456 1455 1454 1453 1453 1453 1451 1450 1450 1450 1450 1449 1449 1448 1447 1447 1446 1446 1445 1445 1445 1446 1446 1447 1448 1449 1450 1451 1452 1453 1454 1455 1456 1456 1457 1458 1459 1460
1466 1465 1459 1458 1458 1455 1456 1456 1455 1453 1453 1452 1451 1453 1453 1451 1449 1448 1448 1447 1447 1446 1445 1444 1444 1444 1444 1444 1444 1445 1445 1446 1448 1449 1449 1450 1451 1452 1453 1454 1454 1456 1456 1457
1466 1465 1462 1461 1458 1455 1459 1457 1456 1454 1453 1452 1452 1453 1452 1450 1449 1448 1447 1447 1446 1445 1444 1443 1443 1442 1442 1442 1442 1442 1443 1444 1445 1446 1447 1447 1448 1449 1450 1451 1452 1452 1453 1454
1468 1466 1464 1461 1459 1460 1460 1458 1456 1454 1453 1452 1451 1451 1450 1449 1448 1447 1446 1445 1444 1443 1442 1442 1441 1441 1440 1440 1440 1440 1440 1441 1442 1443 1444 1444 1445 1446 1447 1448 1448 1449 1449 1450
1466 1466 1463 1461 1460 1459 1458 1457 1455 1454 1453 1452 1450 1450 1449 1448 1447 1446 1445 1444 1443 1442 1441 1441 1440 1440 1439 1439 1438 1438 1438 1439 1440 1441 1441 1442 1442 1443 1444 1445 1445 1446 1446 1447
1465 1463 1461 1460 1458 1458 1457 1456 1455 1454 1453 1451 1450 1449 1448 1447 1446 1445 1444 1443 1442 1441 1440 1440 1439 1439 1438 1437 1437 1436 1437 1437 1437 1438 1438 1439 1440 1441 1441 1442 1442 1443 1444 1444
1465 1462 1460 1458 1458 1457 1456 1455 1454 1453 1452 1451 1450 1448 1447 1446 1445 1445 1443 1442 1441 1440 1439 1439 1438 1437 1437 1436 1436 1435 1435 1435 1435 1436 1436 1437 1437 1438 1439 1440 1441 1441 1441 1441
1462 1460 1460 1458 1457 1456 1455 1454 1453 1452 1450 1450 1449 1448 1446 1445 1445 1444 1443 1441 1440 1439 1439 1438 1437 1436 1435 1435 1434 1434 1433 1433 1433 1434 1434 1435 1435 1436 1436 1438 1438 1438 1438 1439
1458 1457 1457 1456 1456 1455 1453 1452 1451 1450 1449 1449 1448 1447 1446 1445 1444 1443 1442 1441 1439 1438 1437 1436 1435 1434 1434 1433 1433 1432 1432 1432 1432 1432 1432 1432 1433 1433 1433 1434 1435 1435 1435 1435
1456 1456 1455 1454 1454 1453 1452 1451 1450 1449 1448 1448 1447 1446 1445 1444 1443 1442 1441 1439 1438 1437 1436 1435 1434 1433 1433 1432 1432 1431 1431 1431 1430 1430 1430 1431 1431 1431 1431 1431 1431 1431 1431 1431
1455 1455 1454 1453 1452 1451 1450 1449 1448 1447 1447 1446 1445 1444 1443 1442 1441 1440 1439 1438 1437 1436 1435 1434 1433 1432 1431 1431 1430 1430 1429 1429 1429 1429 1429 1429 1429 1428 1428 1428 1428 1428 1428 1428
1453 1453 1452 1452 1451 1450 1449 1448 1446 1446 1445 1444 1444 1443 1442 1441 1440 1439 1438 1437 1436 1434 1433 1432 1431 1431 1430 1429 1429 1428 1428 1428 1427 1427 1427 1427 1426 1426 1426 1426 1425 1425 1425 1425
1452 1451 1450 1449 1449 1448 1447 1447 1446 1445 1444 1443 1443 1442 1441 1440 1438 1437 1437 1436 1434 1433 1432 1431 1430 1429 1428 1428 1427 1426 1426 1426 1425 1425 1425 1424 1424 1424 1423 1423 1423 1423 1422 1422
1451 1450 1449 1448 1448 1447 1446 1445 1445 1444 1443 1442 1441 1441 1440 1438 1437 1436 1435 1434 1433 1432 1431 1430 1429 1428 1427 1426 1425 1424 1424 1424 1423 1423 1422 1422 1422 1421 1421 1421 1420 1420 1419 1419
1449 1448 1448 1447 1447 1446 1445 1444 1444 1443 1442 1441 1440 1439 1438 1437 1437 1435 1434 1433 1432 1430 1430 1428 1427 1426 1425 1424 1423 1422 1422 1422 1421 1421 1420 1420 1419 1419 1419 1418 1418 1417 1417 1416
1448 1447 1447 1446 1446 1445 1444 1443 1443 1442 1441 1440 1439 1438 1437 1436 1435 1434 1433 1432 1430 1429 1428 1427 1425 1424 1423 1422 1421 1421 1420 1419 1419 1418 1418 1417 1417 1416 1416 1415 1415 1414 1414 1413
1447 1447 1446 1445 1445 1444 1444 1443 1442 1441 1440 1439 1438 1437 1436 1435 1434 1433 1431 1430 1429 1428 1426 1425 1424 1422 1421 1420 1419 1418 1418 1417 1417 1416 1415 1415 1414 1414 1413 1413 1412 1411 1411 1410
1446 1446 1445 1445 1444 1443 1443 1442 1441 1440 1439 1438 1437 1436 1435 1434 1432 1431 1430 1429 1427 1426 1424 1423 1421 1420 1419 1418 1417 1416 1415 1415 1414 1413 1413 1412 1411 1411 1410 1410 1409 1408 1407 1407
1446 1445 1444 1444 1443 1442 1442 1441 1440 1439 1438 1437 1436 1435 1433 1432 1431 1430 1428 1427 1425 1424 1422 1421 1419 1418 1417 1416 1415 1414 1413 1412 1411 1410 1410 1409 1408 1408 1407 1406 1406 1405 1404 1403
1445 1444 1444 1443 1442 1441 1440 1440 1439 1438 1437 1436 1435 1433 1432 1431 1429 1428 1427 1425 1423 1422 1420 1418 1417 1416 1415 1413 1412 1411 1410 1409 1408 1407 1406 1405 1405 1404 1403 1402 1402 1401 1400 1399
1444 1443 1442 1442 1441 1440 1439 1438 1437 1436 1435 1434 1433 1432 1430 1429 1428 1426 1424 1423 1421 1419 1417 1416 1415 1413 1411 1410 1409 1407 1406 1405 1404 1403 1402 1402 1401 1400 1399 1399 1398 1397 1396 1395
1442 1442 1441 1440 1440 1439 1438 1437 1435 1434 1433 1432 1431 1430 1428 1427 1425 1424 1422 1420 1418 1417 1415 1413 1412 1410 1408 1407 1405 1404 1403 1402 1401 1400 1399 1398 1397 1396 1395 1394 1393 1392 1391 1390
1441 1440 1440 1439 1438 1437 1436 1435 1434 1433 1432 1430 1429 1428 1426 1425 1423 1421 1419 1418 1416 1414 1412 1410 1409 1407 1405 1404 1402 1401 1399 1398 1397 1396 1394 1393 1392 1391 1390 1389 1388 1387 1386 1385